Location: St. Louis
(38.6270°N, 90.1994°W)
Time: 20:58:39
(UTC-06:00)

Vanguard 3 - Pass Details

Date: 30 November 2021
Orbit: 508 x 3260 km, 33.3° (Epoch: 19 January)

Event Time Altitude Azimuth Distance (km) Brightness Sun altitude
Exits shadow 00:55:11 15° 133° (SE) 5,773 11.4 -68.0°
Maximum altitude 00:55:13 15° 133° (SE) 5,773 11.4 -68.0°
Drops below altitude 10° 01:03:56 10° 106° (ESE) 6,092 11.7 -66.7°
Sets 01:11:40 0° 87° (E) 6,811 12.1 -65.6°
